owner,sensor,date,latitude,longitude,vertical_datum,wind_speed,wind_to_direction,wind_speed_of_gust,qcFlag 
TABS,ioos:station:wmo:42045:1,2008-11-01T00:00:00Z,26.2168,-96.4998,4.0,4.340288009,97.81313182,5.63,'11111222,11111222,11111222' 
TABS,ioos:station:wmo:42045:1,2008-11-01T00:30:00Z,26.2168,-96.4998,4.0,4.364137945,92.49567078,5.97,'11111222,11111222,11111222' 
TABS,ioos:station:wmo:42045:1,2008-11-01T01:00:00Z,26.2168,-96.4998,4.0,4.510011086,89.87253795,5.76,'11111222,11111222,11111222' 
TABS,ioos:station:wmo:42045:1,2008-11-01T01:30:00Z,26.2168,-96.4998,4.0,4.613415221,98.7276782,5.88,'11111222,11111222,11111222' 
TABS,ioos:station:wmo:42045:1,2008-11-01T02:00:00Z,26.2168,-96.4998,4.0,4.717732506,93.28129402,6.18,'11111222,11111222,11111222' 
TABS,ioos:station:wmo:42045:1,2008-11-01T02:30:00Z,26.2168,-96.4998,4.0,3.701958941,102.7977969,5.55,'11111222,11111222,11111222' 
TABS,ioos:station:wmo:42045:1,2008-11-01T03:00:00Z,26.2168,-96.4998,4.0,4.034017848,92.55783189,5.94,'11111222,11111222,11111222' 
TABS,ioos:station:wmo:42045:1,2008-11-01T03:30:00Z,26.2168,-96.4998,4.0,4.848680233,93.42932504,6.49,'11111222,11111222,11111222' 
TABS,ioos:station:wmo:42045:1,2008-11-01T04:00:00Z,26.2168,-96.4998,4.0,5.204651765,87.57697729,6.48,'11111222,11111222,11111222' 
TABS,ioos:station:wmo:42045:1,2008-11-01T04:30:00Z,26.2168,-96.4998,4.0,4.65473952,92.58620921,5.57,'11111222,11111222,11111222' 
TABS,ioos:station:wmo:42045:1,2008-11-01T05:00:00Z,26.2168,-96.4998,4.0,4.399568161,93.77983571,5.82,'11111222,11111222,11111222' 
TABS,ioos:station:wmo:42045:1,2008-11-01T05:30:00Z,26.2168,-96.4998,4.0,5.01367131,94.23258483,5.99,'11111222,11111222,11111222' 
TABS,ioos:station:wmo:42045:1,2008-11-01T06:00:00Z,26.2168,-96.4998,4.0,4.259213542,93.76974559,5.06,'11111222,11111222,11111222' 
TABS,ioos:station:wmo:42045:1,2008-11-01T06:30:00Z,26.2168,-96.4998,4.0,3.823140071,96.3074981,5.01,'11111222,11111222,11111222' 
TABS,ioos:station:wmo:42045:1,2008-11-01T07:00:00Z,26.2168,-96.4998,4.0,3.751053185,111.915236,4.42,'11111222,11111222,11111222' 
TABS,ioos:station:wmo:42045:1,2008-11-01T07:30:00Z,26.2168,-96.4998,4.0,3.790435331,114.4693385,4.62,'11111222,11111222,11111222' 
TABS,ioos:station:wmo:42045:1,2008-11-01T08:00:00Z,26.2168,-96.4998,4.0,3.267919828,110.0433977,4.32,'11111222,11111222,11111222' 
TABS,ioos:station:wmo:42045:1,2008-11-01T08:30:00Z,26.2168,-96.4998,4.0,3.171655719,115.1918707,4.18,'11111222,11111222,11111222' 
TABS,ioos:station:wmo:42045:1,2008-11-01T09:00:00Z,26.2168,-96.4998,4.0,2.703257294,105.8875523,3.55,'11111222,11111222,11111222' 
TABS,ioos:station:wmo:42045:1,2008-11-01T09:30:00Z,26.2168,-96.4998,4.0,2.33520877,106.4176154,3.1,'11111222,11111222,11111222' 
TABS,ioos:station:wmo:42045:1,2008-11-01T10:00:00Z,26.2168,-96.4998,4.0,1.98861761,101.3103269,2.61,'11111222,11111222,11111222' 
TABS,ioos:station:wmo:42045:1,2008-11-01T10:30:00Z,26.2168,-96.4998,4.0,2.312249986,97.95528876,3.37,'11111222,11111222,11111222' 
TABS,ioos:station:wmo:42045:1,2008-11-01T11:00:00Z,26.2168,-96.4998,4.0,1.859946236,109.799251,2.55,'11111222,11111222,11111222' 
TABS,ioos:station:wmo:42045:1,2008-11-01T11:30:00Z,26.2168,-96.4998,4.0,2.094039159,93.55967942,3.14,'11111222,11111222,11111222' 
TABS,ioos:station:wmo:42045:1,2008-11-01T12:00:00Z,26.2168,-96.4998,4.0,2.398853893,75.26820766,3.23,'11111222,11111222,11111222' 
TABS,ioos:station:wmo:42045:1,2008-11-01T12:30:00Z,26.2168,-96.4998,4.0,1.933726971,86.44173554,2.62,'11111222,11111222,11111222' 
TABS,ioos:station:wmo:42045:1,2008-11-01T13:00:00Z,26.2168,-96.4998,4.0,2.188355547,61.32649964,2.92,'11111222,11111222,11111222' 
TABS,ioos:station:wmo:42045:1,2008-11-01T13:30:00Z,26.2168,-96.4998,4.0,1.644019465,80.19350925,2.38,'11111222,11111222,11111222' 
TABS,ioos:station:wmo:42045:1,2008-11-01T14:00:00Z,26.2168,-96.4998,4.0,4.319189739,81.34420657,5.5,'11111222,11111222,11111222' 
TABS,ioos:station:wmo:42045:1,2008-11-01T14:30:00Z,26.2168,-96.4998,4.0,3.811823711,85.48560118,4.7,'11111222,11111222,11111222' 
TABS,ioos:station:wmo:42045:1,2008-11-01T15:00:00Z,26.2168,-96.4998,4.0,4.250188231,90.53965813,5.17,'11111222,11111222,11111222' 
TABS,ioos:station:wmo:42045:1,2008-11-01T15:30:00Z,26.2168,-96.4998,4.0,4.400102272,89.60893301,5.24,'11111222,11111222,11111222' 
TABS,ioos:station:wmo:42045:1,2008-11-01T16:00:00Z,26.2168,-96.4998,4.0,4.428317965,83.51652055,5.45,'11111222,11111222,11111222' 
TABS,ioos:station:wmo:42045:1,2008-11-01T16:30:00Z,26.2168,-96.4998,4.0,4.115458662,81.47571743,5.24,'11111222,11111222,11111222' 
TABS,ioos:station:wmo:42045:1,2008-11-01T17:00:00Z,26.2168,-96.4998,4.0,3.622278289,78.53456882,4.97,'11111222,11111222,11111222' 
TABS,ioos:station:wmo:42045:1,2008-11-01T17:30:00Z,26.2168,-96.4998,4.0,3.151015709,88.54476431,3.94,'11111222,11111222,11111222' 
TABS,ioos:station:wmo:42045:1,2008-11-01T18:00:00Z,26.2168,-96.4998,4.0,2.651886121,81.10559907,3.58,'11111222,11111222,11111222' 
TABS,ioos:station:wmo:42045:1,2008-11-01T18:30:00Z,26.2168,-96.4998,4.0,2.328797973,77.09719673,3.19,'11111222,11111222,11111222' 
TABS,ioos:station:wmo:42045:1,2008-11-01T19:00:00Z,26.2168,-96.4998,4.0,2.15127869,69.87999299,3.07,'11111222,11111222,11111222' 
TABS,ioos:station:wmo:42045:1,2008-11-01T19:30:00Z,26.2168,-96.4998,4.0,2.248488381,72.12874729,3.12,'11111222,11111222,11111222' 
TABS,ioos:station:wmo:42045:1,2008-11-01T20:00:00Z,26.2168,-96.4998,4.0,2.651735281,68.07785175,3.66,'11111222,11111222,11111222' 
TABS,ioos:station:wmo:42045:1,2008-11-01T20:30:00Z,26.2168,-96.4998,4.0,2.440348336,43.50535422,3.62,'11111222,11111222,11111222' 
TABS,ioos:station:wmo:42045:1,2008-11-01T21:00:00Z,26.2168,-96.4998,4.0,2.932643858,30.76243714,3.64,'11111222,11111222,11111222' 
TABS,ioos:station:wmo:42045:1,2008-11-01T21:30:00Z,26.2168,-96.4998,4.0,2.478144467,25.32391172,3.59,'11111222,11111222,11111222' 
TABS,ioos:station:wmo:42045:1,2008-11-01T22:00:00Z,26.2168,-96.4998,4.0,4.026474885,61.84345348,4.93,'11111222,11111222,11111222' 
TABS,ioos:station:wmo:42045:1,2008-11-01T22:30:00Z,26.2168,-96.4998,4.0,3.543176541,64.95343687,4.45,'11111222,11111222,11111222' 
TABS,ioos:station:wmo:42045:1,2008-11-01T23:00:00Z,26.2168,-96.4998,4.0,3.792373927,63.36702444,4.7,'11111222,11111222,11111222' 
TABS,ioos:station:wmo:42045:1,2008-11-01T23:30:00Z,26.2168,-96.4998,4.0,3.933776811,61.2845687,5.04,'11111222,11111222,11111222' 
TABS,ioos:station:wmo:42045:1,2008-11-02T00:00:00Z,26.2168,-96.4998,4.0,4.121092088,69.10186245,5.06,'11111222,11111222,11111222' 
TABS,ioos:station:wmo:42045:1,2008-11-02T00:30:00Z,26.2168,-96.4998,4.0,4.017984569,66.68869856,4.99,'11111222,11111222,11111222' 
TABS,ioos:station:wmo:42045:1,2008-11-02T01:00:00Z,26.2168,-96.4998,4.0,4.247599322,77.07576545,5.74,'11111222,11111222,11111222' 
TABS,ioos:station:wmo:42045:1,2008-11-02T01:30:00Z,26.2168,-96.4998,4.0,4.278808245,73.85189319,5.64,'11111222,11111222,11111222' 
TABS,ioos:station:wmo:42045:1,2008-11-02T02:00:00Z,26.2168,-96.4998,4.0,4.395679697,71.15248159,5.51,'11111222,11111222,11111222' 
TABS,ioos:station:wmo:42045:1,2008-11-02T02:30:00Z,26.2168,-96.4998,4.0,4.191336302,79.41353834,5.76,'11111222,11111222,11111222' 
TABS,ioos:station:wmo:42045:1,2008-11-02T03:00:00Z,26.2168,-96.4998,4.0,5.195623158,71.59954594,6.42,'11111222,11111222,11111222' 
TABS,ioos:station:wmo:42045:1,2008-11-02T03:30:00Z,26.2168,-96.4998,4.0,5.850555529,70.94528511,7.21,'11111222,11111222,11111222' 
TABS,ioos:station:wmo:42045:1,2008-11-02T04:00:00Z,26.2168,-96.4998,4.0,5.211036365,78.15058805,6.5,'11111222,11111222,11111222' 
TABS,ioos:station:wmo:42045:1,2008-11-02T04:30:00Z,26.2168,-96.4998,4.0,5.043371888,82.48002634,6.24,'11111222,11111222,11111222' 
TABS,ioos:station:wmo:42045:1,2008-11-02T05:00:00Z,26.2168,-96.4998,4.0,5.328573918,83.10130679,6.95,'11111222,11111222,11111222' 
TABS,ioos:station:wmo:42045:1,2008-11-02T05:30:00Z,26.2168,-96.4998,4.0,4.957912867,86.76206333,6.28,'11111222,11111222,11111222' 
TABS,ioos:station:wmo:42045:1,2008-11-02T06:00:00Z,26.2168,-96.4998,4.0,4.149457796,93.86959645,5.29,'11111222,11111222,11111222' 
TABS,ioos:station:wmo:42045:1,2008-11-02T06:30:00Z,26.2168,-96.4998,4.0,3.631886562,98.71058054,5.05,'11111222,11111222,11111222' 
TABS,ioos:station:wmo:42045:1,2008-11-02T07:00:00Z,26.2168,-96.4998,4.0,3.565851932,99.19856591,4.57,'11111222,11111222,11111222' 
TABS,ioos:station:wmo:42045:1,2008-11-02T07:30:00Z,26.2168,-96.4998,4.0,3.048032152,105.9974205,4.0,'11111222,11111222,11111222' 
TABS,ioos:station:wmo:42045:1,2008-11-02T08:00:00Z,26.2168,-96.4998,4.0,3.33923644,105.992917,4.3,'11111222,11111222,11111222' 
TABS,ioos:station:wmo:42045:1,2008-11-02T08:30:00Z,26.2168,-96.4998,4.0,3.187804887,102.6851585,4.72,'11111222,11111222,11111222' 
TABS,ioos:station:wmo:42045:1,2008-11-02T09:00:00Z,26.2168,-96.4998,4.0,2.817836049,94.27435702,3.62,'11111222,11111222,11111222' 
TABS,ioos:station:wmo:42045:1,2008-11-02T09:30:00Z,26.2168,-96.4998,4.0,2.66300582,72.51724478,3.79,'11111222,11111222,11111222' 
TABS,ioos:station:wmo:42045:1,2008-11-02T10:00:00Z,26.2168,-96.4998,4.0,2.774833328,73.45859413,3.77,'11111222,11111222,11111222' 
TABS,ioos:station:wmo:42045:1,2008-11-02T10:30:00Z,26.2168,-96.4998,4.0,2.651490147,78.68967306,3.56,'11111222,11111222,11111222' 
TABS,ioos:station:wmo:42045:1,2008-11-02T11:00:00Z,26.2168,-96.4998,4.0,3.322318468,67.52569218,4.73,'11111222,11111222,11111222' 
TABS,ioos:station:wmo:42045:1,2008-11-02T11:30:00Z,26.2168,-96.4998,4.0,3.524272975,64.08895346,4.65,'11111222,11111222,11111222' 
TABS,ioos:station:wmo:42045:1,2008-11-02T12:00:00Z,26.2168,-96.4998,4.0,3.39705755,79.48355729,4.14,'11111222,11111222,11111222' 
TABS,ioos:station:wmo:42045:1,2008-11-02T12:30:00Z,26.2168,-96.4998,4.0,3.3245902,79.60226987,4.3,'11111222,11111222,11111222' 
TABS,ioos:station:wmo:42045:1,2008-11-02T13:00:00Z,26.2168,-96.4998,4.0,3.189043744,78.05542982,4.09,'11111222,11111222,11111222' 
TABS,ioos:station:wmo:42045:1,2008-11-02T13:30:00Z,26.2168,-96.4998,4.0,3.667274192,75.47075928,4.43,'11111222,11111222,11111222' 
TABS,ioos:station:wmo:42045:1,2008-11-02T14:00:00Z,26.2168,-96.4998,4.0,3.971410329,78.37844051,4.82,'11111222,11111222,11111222' 
TABS,ioos:station:wmo:42045:1,2008-11-02T14:30:00Z,26.2168,-96.4998,4.0,4.159146547,72.65381299,5.26,'11111222,11111222,11111222' 
TABS,ioos:station:wmo:42045:1,2008-11-02T15:00:00Z,26.2168,-96.4998,4.0,3.921861803,76.28226484,4.89,'11111222,11111222,11111222' 
TABS,ioos:station:wmo:42045:1,2008-11-02T15:30:00Z,26.2168,-96.4998,4.0,3.681426354,77.92659024,4.81,'11111222,11111222,11111222' 
TABS,ioos:station:wmo:42045:1,2008-11-02T16:00:00Z,26.2168,-96.4998,4.0,3.798170612,76.29265013,4.85,'11111222,11111222,11111222' 
TABS,ioos:station:wmo:42045:1,2008-11-02T16:30:00Z,26.2168,-96.4998,4.0,3.87104637,72.40719566,4.59,'11111222,11111222,11111222' 
TABS,ioos:station:wmo:42045:1,2008-11-02T17:00:00Z,26.2168,-96.4998,4.0,3.786092973,76.40381315,4.71,'11111222,11111222,11111222' 
TABS,ioos:station:wmo:42045:1,2008-11-02T17:30:00Z,26.2168,-96.4998,4.0,3.774029677,76.51568724,4.56,'11111222,11111222,11111222' 
TABS,ioos:station:wmo:42045:1,2008-11-02T18:00:00Z,26.2168,-96.4998,4.0,4.073033268,71.38673715,5.3,'11111222,11111222,11111222' 
TABS,ioos:station:wmo:42045:1,2008-11-02T18:30:00Z,26.2168,-96.4998,4.0,4.043785355,69.59283219,5.16,'11111222,11111222,11111222' 
TABS,ioos:station:wmo:42045:1,2008-11-02T19:00:00Z,26.2168,-96.4998,4.0,3.693900378,69.06234277,4.7,'11111222,11111222,11111222' 
TABS,ioos:station:wmo:42045:1,2008-11-02T19:30:00Z,26.2168,-96.4998,4.0,3.789775719,77.50359726,4.87,'11111222,11111222,11111222' 
TABS,ioos:station:wmo:42045:1,2008-11-02T20:00:00Z,26.2168,-96.4998,4.0,3.335206141,73.62946646,4.37,'11111222,11111222,11111222' 
TABS,ioos:station:wmo:42045:1,2008-11-02T20:30:00Z,26.2168,-96.4998,4.0,3.636069306,86.68864531,4.49,'11111222,11111222,11111222' 
TABS,ioos:station:wmo:42045:1,2008-11-02T21:00:00Z,26.2168,-96.4998,4.0,4.146142786,80.55999734,5.37,'11111222,11111222,11111222' 
TABS,ioos:station:wmo:42045:1,2008-11-02T21:30:00Z,26.2168,-96.4998,4.0,4.346090197,86.96601172,5.75,'11111222,11111222,11111222' 
TABS,ioos:station:wmo:42045:1,2008-11-02T22:00:00Z,26.2168,-96.4998,4.0,4.398295124,77.2588572,5.8,'11111222,11111222,11111222' 
TABS,ioos:station:wmo:42045:1,2008-11-02T22:30:00Z,26.2168,-96.4998,4.0,5.019103506,80.48097803,7.13,'11111222,11111222,11111222' 
TABS,ioos:station:wmo:42045:1,2008-11-02T23:00:00Z,26.2168,-96.4998,4.0,4.761312844,84.57637317,5.99,'11111222,11111222,11111222' 
TABS,ioos:station:wmo:42045:1,2008-11-02T23:30:00Z,26.2168,-96.4998,4.0,4.742003796,83.33916901,6.04,'11111222,11111222,11111222' 
TABS,ioos:station:wmo:42045:1,2008-11-03T00:00:00Z,26.2168,-96.4998,4.0,5.115662225,94.48501644,6.37,'11111222,11111222,11111222' 
TABS,ioos:station:wmo:42045:1,2008-11-03T00:30:00Z,26.2168,-96.4998,4.0,5.281940931,96.30466079,6.94,'11111222,11111222,11111222' 
TABS,ioos:station:wmo:42045:1,2008-11-03T01:00:00Z,26.2168,-96.4998,4.0,5.05191053,95.33858989,6.68,'11111222,11111222,11111222' 
TABS,ioos:station:wmo:42045:1,2008-11-03T01:30:00Z,26.2168,-96.4998,4.0,4.785645202,102.0617022,6.12,'11111222,11111222,11111222' 
TABS,ioos:station:wmo:42045:1,2008-11-03T02:00:00Z,26.2168,-96.4998,4.0,4.974263765,108.3989022,6.7,'11111222,11111222,11111222' 
TABS,ioos:station:wmo:42045:1,2008-11-03T02:30:00Z,26.2168,-96.4998,4.0,4.663743132,119.9738045,6.04,'11111222,11111222,11111222' 
TABS,ioos:station:wmo:42045:1,2008-11-03T03:00:00Z,26.2168,-96.4998,4.0,4.64536328,110.5419823,5.85,'11111222,11111222,11111222' 
TABS,ioos:station:wmo:42045:1,2008-11-03T03:30:00Z,26.2168,-96.4998,4.0,4.792201999,126.3441602,6.52,'11111222,11111222,11111222' 
TABS,ioos:station:wmo:42045:1,2008-11-03T04:00:00Z,26.2168,-96.4998,4.0,5.098234989,116.56541,6.68,'11111222,11111222,11111222' 
TABS,ioos:station:wmo:42045:1,2008-11-03T04:30:00Z,26.2168,-96.4998,4.0,5.67134023,119.0058942,6.97,'11111222,11111222,11111222' 
TABS,ioos:station:wmo:42045:1,2008-11-03T05:00:00Z,26.2168,-96.4998,4.0,5.714910323,127.8929021,6.96,'11111222,11111222,11111222' 
TABS,ioos:station:wmo:42045:1,2008-11-03T05:30:00Z,26.2168,-96.4998,4.0,6.279052476,114.3612486,7.79,'11111222,11111222,11111222' 
TABS,ioos:station:wmo:42045:1,2008-11-03T06:00:00Z,26.2168,-96.4998,4.0,5.935385413,112.5905307,7.46,'11111222,11111222,11111222' 
TABS,ioos:station:wmo:42045:1,2008-11-03T06:30:00Z,26.2168,-96.4998,4.0,6.519915644,111.410132,7.88,'11111222,11111222,11111222' 
TABS,ioos:station:wmo:42045:1,2008-11-03T07:00:00Z,26.2168,-96.4998,4.0,5.704357983,125.2227585,6.89,'11111222,11111222,11111222' 
TABS,ioos:station:wmo:42045:1,2008-11-03T07:30:00Z,26.2168,-96.4998,4.0,5.912774307,129.9920037,7.56,'11111222,11111222,11111222' 
TABS,ioos:station:wmo:42045:1,2008-11-03T08:00:00Z,26.2168,-96.4998,4.0,6.261732987,132.9941698,7.66,'11111222,11111222,11111222' 
TABS,ioos:station:wmo:42045:1,2008-11-03T08:30:00Z,26.2168,-96.4998,4.0,5.759201334,124.9597586,6.86,'11111222,11111222,11111222' 
TABS,ioos:station:wmo:42045:1,2008-11-03T09:00:00Z,26.2168,-96.4998,4.0,6.681377104,116.488709,7.88,'11111222,11111222,11111222' 
TABS,ioos:station:wmo:42045:1,2008-11-03T09:30:00Z,26.2168,-96.4998,4.0,6.504805916,129.0728254,7.8,'11111222,11111222,11111222' 
TABS,ioos:station:wmo:42045:1,2008-11-03T10:00:00Z,26.2168,-96.4998,4.0,6.930115439,127.2009395,8.38,'11111222,11111222,11111222' 
TABS,ioos:station:wmo:42045:1,2008-11-03T10:30:00Z,26.2168,-96.4998,4.0,6.958634924,134.1851887,8.52,'11111222,11111222,11111222' 
TABS,ioos:station:wmo:42045:1,2008-11-03T11:00:00Z,26.2168,-96.4998,4.0,6.654179138,135.5482913,8.18,'11111222,11111222,11111222' 
TABS,ioos:station:wmo:42045:1,2008-11-03T11:30:00Z,26.2168,-96.4998,4.0,6.603764078,123.4497742,7.79,'11111222,11111222,11111222' 
TABS,ioos:station:wmo:42045:1,2008-11-03T12:00:00Z,26.2168,-96.4998,4.0,5.600401771,128.5482958,7.27,'11111222,11111222,11111222' 
TABS,ioos:station:wmo:42045:1,2008-11-03T12:30:00Z,26.2168,-96.4998,4.0,5.450770588,129.2675484,6.57,'11111222,11111222,11111222' 
TABS,ioos:station:wmo:42045:1,2008-11-03T13:00:00Z,26.2168,-96.4998,4.0,5.988397114,119.7333653,7.05,'11111222,11111222,11111222' 
TABS,ioos:station:wmo:42045:1,2008-11-03T13:30:00Z,26.2168,-96.4998,4.0,6.436342129,120.9488384,7.69,'11111222,11111222,11111222' 
TABS,ioos:station:wmo:42045:1,2008-11-03T14:00:00Z,26.2168,-96.4998,4.0,6.270007974,126.9616129,7.67,'11111222,11111222,11111222' 
TABS,ioos:station:wmo:42045:1,2008-11-03T14:30:00Z,26.2168,-96.4998,4.0,6.06011551,130.1811661,7.83,'11111222,11111222,11111222' 
TABS,ioos:station:wmo:42045:1,2008-11-03T15:00:00Z,26.2168,-96.4998,4.0,6.931962204,132.0182535,8.76,'11111222,11111222,11111222' 
TABS,ioos:station:wmo:42045:1,2008-11-03T15:30:00Z,26.2168,-96.4998,4.0,7.192899276,137.8177103,8.74,'11111222,11111222,11111222' 
TABS,ioos:station:wmo:42045:1,2008-11-03T16:00:00Z,26.2168,-96.4998,4.0,4.032914579,195.82848,10.6,'11111222,11111222,11111222' 
TABS,ioos:station:wmo:42045:1,2008-11-03T16:30:00Z,26.2168,-96.4998,4.0,4.225221888,140.281544,6.07,'11111222,11111222,11111222' 
TABS,ioos:station:wmo:42045:1,2008-11-03T17:00:00Z,26.2168,-96.4998,4.0,6.59047798,135.4921117,8.44,'11111222,11111222,11111222' 
TABS,ioos:station:wmo:42045:1,2008-11-03T17:30:00Z,26.2168,-96.4998,4.0,6.984618816,129.3647679,8.73,'11111222,11111222,11111222' 
TABS,ioos:station:wmo:42045:1,2008-11-03T18:00:00Z,26.2168,-96.4998,4.0,6.180258894,135.3936435,7.94,'11111222,11111222,11111222' 
TABS,ioos:station:wmo:42045:1,2008-11-03T18:30:00Z,26.2168,-96.4998,4.0,4.836279562,211.126435,7.08,'11111222,11111222,11111222' 
TABS,ioos:station:wmo:42045:1,2008-11-03T19:00:00Z,26.2168,-96.4998,4.0,4.599065122,160.3045312,6.18,'11111222,11111222,11111222' 
TABS,ioos:station:wmo:42045:1,2008-11-03T19:30:00Z,26.2168,-96.4998,4.0,2.124452871,158.7497546,7.67,'11111222,11111222,11111222' 
TABS,ioos:station:wmo:42045:1,2008-11-03T20:00:00Z,26.2168,-96.4998,4.0,2.915475947,194.7037279,4.38,'11111222,11111222,11111222' 
TABS,ioos:station:wmo:42045:1,2008-11-03T20:30:00Z,26.2168,-96.4998,4.0,6.391509994,152.5131178,8.78,'11111222,11111222,11111222' 
TABS,ioos:station:wmo:42045:1,2008-11-03T21:00:00Z,26.2168,-96.4998,4.0,3.186424328,144.0654615,4.12,'11111222,11111222,11111222' 
TABS,ioos:station:wmo:42045:1,2008-11-03T21:30:00Z,26.2168,-96.4998,4.0,5.538239793,130.6801692,6.56,'11111222,11111222,11111222' 
TABS,ioos:station:wmo:42045:1,2008-11-03T22:00:00Z,26.2168,-96.4998,4.0,5.488396852,126.1812144,6.69,'11111222,11111222,11111222' 
TABS,ioos:station:wmo:42045:1,2008-11-03T22:30:00Z,26.2168,-96.4998,4.0,4.806349966,127.5616568,5.74,'11111222,11111222,11111222' 
TABS,ioos:station:wmo:42045:1,2008-11-03T23:00:00Z,26.2168,-96.4998,4.0,4.829989648,149.931698,5.87,'11111222,11111222,11111222' 
TABS,ioos:station:wmo:42045:1,2008-11-03T23:30:00Z,26.2168,-96.4998,4.0,5.472120247,146.252142,6.46,'11111222,11111222,11111222' 
TABS,ioos:station:wmo:42045:1,2008-11-04T00:00:00Z,26.2168,-96.4998,4.0,4.925768976,141.5948153,5.93,'11111222,11111222,11111222' 
TABS,ioos:station:wmo:42045:1,2008-11-04T00:30:00Z,26.2168,-96.4998,4.0,5.344249246,138.9454927,6.5,'11111222,11111222,11111222' 
TABS,ioos:station:wmo:42045:1,2008-11-04T01:00:00Z,26.2168,-96.4998,4.0,6.081529413,134.3341173,7.53,'11111222,11111222,11111222' 
TABS,ioos:station:wmo:42045:1,2008-11-04T01:30:00Z,26.2168,-96.4998,4.0,7.069377625,137.2359474,8.54,'11111222,11111222,11111222' 
TABS,ioos:station:wmo:42045:1,2008-11-04T02:00:00Z,26.2168,-96.4998,4.0,6.798330677,141.6300615,8.06,'11111222,11111222,11111222' 
TABS,ioos:station:wmo:42045:1,2008-11-04T02:30:00Z,26.2168,-96.4998,4.0,7.205692194,146.6630773,8.8,'11111222,11111222,11111222' 
TABS,ioos:station:wmo:42045:1,2008-11-04T03:00:00Z,26.2168,-96.4998,4.0,8.189804637,132.3775431,9.72,'11111222,11111222,11111222' 
TABS,ioos:station:wmo:42045:1,2008-11-04T03:30:00Z,26.2168,-96.4998,4.0,8.808910262,131.1801311,10.94,'11111222,11111222,11111222' 
TABS,ioos:station:wmo:42045:1,2008-11-04T04:00:00Z,26.2168,-96.4998,4.0,8.216629479,134.8030853,9.98,'11111222,11111222,11111222' 
TABS,ioos:station:wmo:42045:1,2008-11-04T04:30:00Z,26.2168,-96.4998,4.0,8.200006098,136.9275697,10.77,'11111222,11111222,11111222' 
TABS,ioos:station:wmo:42045:1,2008-11-04T05:00:00Z,26.2168,-96.4998,4.0,7.78233898,136.8747769,9.25,'11111222,11111222,11111222' 
TABS,ioos:station:wmo:42045:1,2008-11-04T05:30:00Z,26.2168,-96.4998,4.0,8.322721911,134.7569202,10.02,'11111222,11111222,11111222' 
TABS,ioos:station:wmo:42045:1,2008-11-04T06:00:00Z,26.2168,-96.4998,4.0,8.386334122,135.1935549,10.29,'11111222,11111222,11111222' 
TABS,ioos:station:wmo:42045:1,2008-11-04T06:30:00Z,26.2168,-96.4998,4.0,8.425675047,144.2728958,10.02,'11111222,11111222,11111222' 
TABS,ioos:station:wmo:42045:1,2008-11-04T07:00:00Z,26.2168,-96.4998,4.0,8.292532786,148.3610971,9.78,'11111222,11111222,11111222' 
TABS,ioos:station:wmo:42045:1,2008-11-04T07:30:00Z,26.2168,-96.4998,4.0,7.954753296,146.8495999,9.49,'11111222,11111222,11111222' 
TABS,ioos:station:wmo:42045:1,2008-11-04T08:00:00Z,26.2168,-96.4998,4.0,8.120812767,146.3493581,10.05,'11111222,11111222,11111222' 
TABS,ioos:station:wmo:42045:1,2008-11-04T08:30:00Z,26.2168,-96.4998,4.0,8.05492396,142.2625651,9.23,'11111222,11111222,11111222' 
TABS,ioos:station:wmo:42045:1,2008-11-04T09:00:00Z,26.2168,-96.4998,4.0,8.018341474,142.6016191,9.65,'11111222,11111222,11111222' 
TABS,ioos:station:wmo:42045:1,2008-11-04T09:30:00Z,26.2168,-96.4998,4.0,7.498746562,136.7294704,9.42,'11111222,11111222,11111222' 
TABS,ioos:station:wmo:42045:1,2008-11-04T10:00:00Z,26.2168,-96.4998,4.0,7.681002539,138.6950889,9.21,'11111222,11111222,11111222' 
TABS,ioos:station:wmo:42045:1,2008-11-04T10:30:00Z,26.2168,-96.4998,4.0,7.493623956,141.9375494,9.22,'11111222,11111222,11111222' 
TABS,ioos:station:wmo:42045:1,2008-11-04T11:00:00Z,26.2168,-96.4998,4.0,6.378165881,134.7462347,8.15,'11111222,11111222,11111222' 
TABS,ioos:station:wmo:42045:1,2008-11-04T11:30:00Z,26.2168,-96.4998,4.0,7.029679936,159.8639541,8.31,'11111222,11111222,11111222' 
TABS,ioos:station:wmo:42045:1,2008-11-04T12:00:00Z,26.2168,-96.4998,4.0,6.570060883,152.7331996,8.01,'11111222,11111222,11111222' 
TABS,ioos:station:wmo:42045:1,2008-11-04T12:30:00Z,26.2168,-96.4998,4.0,7.426937458,157.2676469,8.96,'11111222,11111222,11111222' 
TABS,ioos:station:wmo:42045:1,2008-11-04T13:00:00Z,26.2168,-96.4998,4.0,7.693347776,144.2028911,9.03,'11111222,11111222,11111222' 
TABS,ioos:station:wmo:42045:1,2008-11-04T13:30:00Z,26.2168,-96.4998,4.0,7.94713785,150.6935807,9.54,'11111222,11111222,11111222' 
TABS,ioos:station:wmo:42045:1,2008-11-04T14:00:00Z,26.2168,-96.4998,4.0,7.714466929,153.2691475,9.3,'11111222,11111222,11111222' 
TABS,ioos:station:wmo:42045:1,2008-11-04T14:30:00Z,26.2168,-96.4998,4.0,7.813270762,151.4015226,9.38,'11111222,11111222,11111222' 
TABS,ioos:station:wmo:42045:1,2008-11-04T15:00:00Z,26.2168,-96.4998,4.0,6.304918715,148.226087,10.3,'11111222,11111222,11111222' 
TABS,ioos:station:wmo:42045:1,2008-11-04T15:30:00Z,26.2168,-96.4998,4.0,8.495198644,167.0763968,10.63,'11111222,11111222,11111222' 
TABS,ioos:station:wmo:42045:1,2008-11-04T16:00:00Z,26.2168,-96.4998,4.0,9.059210782,164.506605,12.23,'11111222,11111222,11111222' 
TABS,ioos:station:wmo:42045:1,2008-11-04T16:30:00Z,26.2168,-96.4998,4.0,6.667683256,182.7510388,8.65,'11111222,11111222,11111222' 
TABS,ioos:station:wmo:42045:1,2008-11-04T17:00:00Z,26.2168,-96.4998,4.0,4.741571469,165.9639998,6.45,'11111222,11111222,11111222' 
TABS,ioos:station:wmo:42045:1,2008-11-04T17:30:00Z,26.2168,-96.4998,4.0,5.531808023,162.6462264,8.67,'11111222,11111222,11111222' 
TABS,ioos:station:wmo:42045:1,2008-11-04T18:00:00Z,26.2168,-96.4998,4.0,7.60353865,165.7629633,9.14,'11111222,11111222,11111222' 
TABS,ioos:station:wmo:42045:1,2008-11-04T18:30:00Z,26.2168,-96.4998,4.0,7.5646877,164.5126246,8.76,'11111222,11111222,11111222' 